Back to catalog

COSMOS 2251 DEB

AliveLEO
NORAD 35705·DEBRIS·🇷🇺 Russia

Launched Jun 16, 1993 from Plesetsk Cosmodrome

Loading…

Next Passes (next 24 hours)

TLE

FreshSource: Space-Track

Epoch: Sep 13, 2026, 11:09 UTC

1 35705U 93036AQA 26256.46477536  .00012503  00000-0  15669-2 0  9994
2 35705  74.2700 324.3542 0019674 194.0496 166.0139 14.82124831899843

Track COSMOS 2251 DEB in real time with AllMySat

Download on the App Store